This demonstration page uses our WeatherBlox Daily Observations layout. Learn more.

Left ArrowRight Arrow

Hourly Observations for January 23, 2017

Temp ( °F °C ) Dew Point ( °F °C ) Humidity (%) Winds ( mph kmh ) Pressure ( in mb ) Visibility ( mi km ) Precip ( " mm )
12:15 am 00:15 Mostly Cloudy 48 9 46 8 94 94 N 14 22 29.53 1000 5 8 N/A
12:36 am 00:36 Cloudy 48 9 46 8 94 94 N 13 20 29.53 1000 5 8 N/A
12:55 am 00:55 Cloudy 48 9 48 9 100 100 NNE 16 26 29.53 1000 5 8 N/A
1:15 am 01:15 Cloudy 48 9 48 9 100 100 N 14 22 29.53 1000 4 6 N/A
1:36 am 01:36 Cloudy 48 9 48 9 100 100 N 15 24 29.50 999 3 5 N/A
1:55 am 01:55 Cloudy 48 9 48 9 100 100 N 16 26 29.50 999 3 5 N/A
2:15 am 02:15 Cloudy 48 9 48 9 100 100 N 17 28 29.50 999 3 5 N/A
2:36 am 02:36 Cloudy 48 9 46 8 94 94 N 18 30 29.53 1000 3 5 N/A
2:55 am 02:55 Cloudy 48 9 46 8 94 94 N 18 30 29.53 1000 3 4 N/A
3:15 am 03:15 Cloudy 48 9 46 8 94 94 N 15 24 29.53 1000 3 4 N/A
3:36 am 03:36 Cloudy 48 9 46 8 94 94 N 18 30 29.53 1000 3 4 N/A
3:55 am 03:55 Cloudy 46 8 46 8 100 100 N 16 26 29.53 1000 2 3 N/A
4:16 am 04:16 Cloudy 46 8 46 8 100 100 N 17 28 29.53 1000 1 2 N/A
4:36 am 04:36 Cloudy 46 8 46 8 100 100 N 17 28 29.53 1000 1 1 N/A
4:55 am 04:55 Cloudy 45 7 45 7 100 100 N 20 31 29.53 1000 1 1 N/A
5:16 am 05:16 Cloudy 45 7 45 7 100 100 N 20 31 29.53 1000 1 1 N/A
5:35 am 05:35 Cloudy 45 7 45 7 100 100 N 17 28 29.59 1002 1 1 N/A
5:55 am 05:55 Cloudy 45 7 45 7 100 100 N 21 33 29.59 1002 1 2 N/A
6:16 am 06:16 Cloudy 45 7 45 7 100 100 N 18 30 29.59 1002 1 2 N/A
6:35 am 06:35 Cloudy 43 6 43 6 100 100 N 17 28 29.59 1002 1 2 N/A
6:56 am 06:56 Cloudy 43 6 43 6 100 100 NNW 20 31 29.59 1002 2 2 N/A
7:15 am 07:15 Cloudy 43 6 43 6 100 100 N 20 31 29.62 1003 2 2 N/A
7:35 am 07:35 Cloudy 43 6 43 6 100 100 N 20 31 29.62 1003 2 3 N/A
7:56 am 07:56 Cloudy 43 6 43 6 100 100 N 18 30 29.65 1004 2 3 N/A
8:15 am 08:15 Cloudy 43 6 43 6 100 100 NNW 17 28 29.65 1004 2 3 N/A
8:35 am 08:35 Cloudy 43 6 43 6 100 100 NNW 17 28 29.65 1004 2 2 N/A
8:56 am 08:56 Cloudy 43 6 43 6 100 100 N 18 30 29.65 1004 2 3 N/A
9:15 am 09:15 Cloudy 43 6 43 6 100 100 N 16 26 29.65 1004 2 3 N/A
9:36 am 09:36 Cloudy 43 6 43 6 100 100 N 18 30 29.65 1004 3 4 N/A
9:56 am 09:56 Cloudy 43 6 43 6 100 100 N 17 28 29.68 1005 3 4 N/A
10:15 am 10:15 Cloudy 43 6 43 6 100 100 N 14 22 29.68 1005 3 4 N/A
10:36 am 10:36 Cloudy 43 6 43 6 100 100 N 17 28 29.68 1005 2 3 N/A
10:56 am 10:56 Cloudy 43 6 43 6 100 100 NNW 15 24 29.68 1005 2 3 N/A
11:15 am 11:15 Cloudy 43 6 43 6 100 100 NNW 15 24 29.68 1005 3 4 N/A
11:36 am 11:36 Cloudy 43 6 43 6 100 100 NNW 15 24 29.68 1005 3 4 N/A
11:56 am 11:56 Cloudy 43 6 43 6 100 100 NNW 15 24 29.68 1005 2 3 N/A
12:15 pm 12:15 Cloudy 43 6 43 6 100 100 NNW 17 28 29.68 1005 2 3 N/A
12:36 pm 12:36 Cloudy 43 6 43 6 100 100 NNW 14 22 29.68 1005 2 2 N/A
12:55 pm 12:55 Cloudy 43 6 43 6 100 100 NNW 14 22 29.68 1005 2 2 N/A
1:15 pm 13:15 Cloudy 43 6 43 6 100 100 NNW 13 20 29.68 1005 2 2 N/A
1:36 pm 13:36 Cloudy 43 6 43 6 100 100 NNW 15 24 29.65 1004 2 2 N/A
1:55 pm 13:55 Cloudy 43 6 41 5 93 93 N 16 26 29.65 1004 2 3 N/A
2:16 pm 14:16 Cloudy 41 5 41 5 100 100 NNW 16 26 29.65 1004 2 2 N/A
2:36 pm 14:36 Cloudy 41 5 41 5 100 100 NNW 15 24 29.65 1004 2 2 N/A
2:55 pm 14:55 Cloudy 41 5 41 5 100 100 NNW 12 19 29.65 1004 1 2 N/A
3:16 pm 15:16 Cloudy 41 5 41 5 100 100 NW 16 26 29.68 1005 1 2 N/A
3:36 pm 15:36 Cloudy 41 5 41 5 100 100 NNW 14 22 29.68 1005 2 3 N/A
3:55 pm 15:55 Cloudy 41 5 41 5 100 100 NNW 14 22 29.68 1005 3 4 N/A
4:16 pm 16:16 Cloudy 41 5 41 5 100 100 NW 14 22 29.68 1005 3 5 N/A
4:36 pm 16:36 Cloudy 41 5 41 5 100 100 NNW 12 19 29.68 1005 5 8 N/A
4:55 pm 16:55 Cloudy 41 5 41 5 100 100 NW 12 19 29.68 1005 5 8 N/A
5:16 pm 17:16 Cloudy 41 5 41 5 100 100 NNW 12 19 29.68 1005 4 6 N/A
5:36 pm 17:36 Cloudy 41 5 39 4 93 93 NNW 15 24 29.71 1006 5 8 N/A
5:55 pm 17:55 Cloudy 41 5 39 4 93 93 NNW 16 26 29.71 1006 5 8 N/A
6:16 pm 18:16 Cloudy 41 5 39 4 93 93 NW 13 20 29.71 1006 5 8 N/A
6:36 pm 18:36 Cloudy 41 5 39 4 93 93 NW 12 19 29.74 1007 5 8 N/A
6:55 pm 18:55 Cloudy 39 4 39 4 100 100 NW 13 20 29.74 1007 3 5 N/A
7:16 pm 19:16 Cloudy 39 4 39 4 100 100 NW 9 15 29.74 1007 2 3 N/A
7:35 pm 19:35 Cloudy 39 4 39 4 100 100 NW 13 20 29.74 1007 2 3 N/A
7:56 pm 19:56 Cloudy 39 4 39 4 100 100 NNW 8 13 29.77 1008 3 4 N/A
8:15 pm 20:15 Cloudy 39 4 39 4 100 100 NNW 12 19 29.74 1007 3 5 N/A
8:36 pm 20:36 Cloudy 39 4 37 3 93 93 NW 12 19 29.77 1008 4 6 N/A
8:56 pm 20:56 Cloudy 39 4 37 3 93 93 NW 12 19 29.77 1008 5 8 N/A
9:15 pm 21:15 Cloudy 39 4 37 3 93 93 NW 12 19 29.77 1008 4 6 N/A
9:36 pm 21:36 Cloudy 39 4 37 3 93 93 NW 10 17 29.80 1009 5 8 N/A
9:55 pm 21:55 Cloudy 39 4 37 3 93 93 NW 12 19 29.80 1009 3 4 N/A
10:15 pm 22:15 Cloudy 39 4 37 3 93 93 NW 10 17 29.80 1009 3 4 N/A
10:36 pm 22:36 Cloudy 37 3 37 3 100 100 NW 13 20 29.80 1009 3 4 N/A
10:55 pm 22:55 Cloudy 37 3 37 3 100 100 NNW 13 20 29.80 1009 4 6 N/A
11:15 pm 23:15 Cloudy 37 3 37 3 100 100 NNW 13 20 29.77 1008 5 8 N/A
11:36 pm 23:36 Cloudy 37 3 37 3 100 100 NNW 12 19 29.77 1008 7 11 N/A
11:55 pm 23:55 Cloudy 37 3 37 3 100 100 NNW 12 19 29.77 1008 10 16 N/A

Powered by AerisWeather